QPF
0.00 0.00 0.00 0.00 0.00 0.00 0.00 0.00 0.01 0.01 0.01 0.01 0.01 0.01 0.02 0.04 0.06 0.08 0.12 0.16 0.19 0.21 0.21 0.21 0.20 0.17 0.13 0.08 0.05 0.03 0.02 0.01 0.00 0.00 0.00 0.01 0.01 0.01 0.00 0.00 0.00 0.00 0.00
0.00 0.00 0.00 0.00 0.00 0.00 0.00 0.00 0.01 0.01 0.01 0.01 0.01 0.01 0.02 0.03 0.04 0.06 0.09 0.12 0.15 0.18 0.20 0.21 0.21 0.20 0.16 0.10 0.06 0.03 0.02 0.02 0.01 0.00 0.00 0.00 0.00 0.00 0.00 0.00 0.00 0.00 0.00
0.00 0.00 0.00 0.00 0.00 0.00 0.00 0.00 0.01 0.01 0.01 0.01 0.01 0.01 0.02 0.03 0.05 0.06 0.07 0.08 0.10 0.12 0.14 0.16 0.19 0.21 0.20 0.14 0.08 0.04 0.03 0.02 0.01 0.00 0.00 0.00 0.00 0.00 0.00 0.00 0.00 0.00 0.00
0.00 0.00 0.00 0.00 0.00 0.00 0.00 0.00 0.00 0.01 0.01 0.01 0.01 0.01 0.03 0.05 0.07 0.06 0.06 0.07 0.10 0.11 0.12 0.13 0.14 0.16 0.18 0.17 0.13 0.07 0.03 0.02 0.01 0.01 0.01 0.00 0.00 0.00 0.00 0.00 0.00 0.00 0.00
0.00 0.00 0.00 0.00 0.00 0.00 0.00 0.00 0.00 0.00 0.01 0.00 0.00 0.01 0.02 0.05 0.08 0.07 0.05 0.06 0.08 0.11 0.13 0.15 0.15 0.16 0.17 0.15 0.13 0.10 0.06 0.03 0.02 0.02 0.02 0.01 0.00 0.01 0.01 0.01 0.02 0.01 0.01
0.00 0.00 0.00 0.00 0.00 0.00 0.00 0.00 0.00 0.00 0.00 0.00 0.00 0.00 0.01 0.02 0.07 0.10 0.06 0.05 0.06 0.09 0.12 0.13 0.14 0.14 0.15 0.15 0.13 0.09 0.06 0.04 0.03 0.03 0.03 0.02 0.01 0.01 0.01 0.02 0.03 0.03 0.02
0.00 0.00 0.00 0.00 0.00 0.00 0.00 0.00 0.00 0.00 0.00 0.00 0.00 0.00 0.00 0.01 0.05 0.10 0.06 0.03 0.04 0.06 0.07 0.09 0.09 0.09 0.09 0.08 0.07 0.05 0.04 0.04 0.04 0.05 0.05 0.05 0.03 0.02 0.02 0.02 0.04 0.05 0.04
0.00 0.00 0.00 0.00 0.00 0.00 0.00 0.00 0.00 0.00 0.00 0.00 0.00 0.00 0.00 0.00 0.05 0.11 0.05 0.01 0.02 0.04 0.04 0.05 0.05 0.05 0.05 0.04 0.03 0.03 0.03 0.03 0.04 0.05 0.07 0.08 0.08 0.06 0.04 0.05 0.06 0.07 0.07
0.00 0.00 0.00 0.00 0.00 0.00 0.00 0.00 0.00 0.00 0.00 0.00 0.00 0.00 0.00 0.00 0.04 0.12 0.08 0.01 0.02 0.03 0.03 0.03 0.02 0.02 0.02 0.01 0.02 0.02 0.03 0.03 0.04 0.06 0.08 0.09 0.10 0.09 0.08 0.07 0.09 0.10 0.12
0.00 0.00 0.00 0.00 0.00 0.00 0.00 0.00 0.00 0.00 0.00 0.00 0.00 0.00 0.00 0.00 0.02 0.09 0.13 0.03 0.02 0.03 0.04 0.03 0.03 0.02 0.01 0.01 0.01 0.01 0.02 0.02 0.02 0.02 0.03 0.04 0.04 0.04 0.04 0.06 0.08 0.08 0.09
0.00 0.00 0.00 0.00 0.00 0.00 0.00 0.00 0.00 0.00 0.00 0.00 0.00 0.00 0.00 0.00 0.00 0.04 0.13 0.10 0.04 0.02 0.03 0.03 0.02 0.01 0.01 0.01 0.00 0.01 0.01 0.01 0.01 0.01 0.01 0.02 0.02 0.02 0.02 0.02 0.03 0.04 0.04
0.00 0.00 0.00 0.00 0.00 0.00 0.00 0.00 0.00 0.00 0.00 0.00 0.00 0.00 0.00 0.00 0.00 0.01 0.05 0.09 0.07 0.01 0.01 0.02 0.01 0.01 0.01 0.01 0.01 0.01 0.00 0.00 0.00 0.00 0.00 0.01 0.01 0.01 0.01 0.01 0.01 0.01 0.01
0.00 0.00 0.00 0.00 0.00 0.00 0.00 0.00 0.00 0.00 0.00 0.01 0.01 0.00 0.00 0.00 0.00 0.01 0.02 0.02 0.02 0.01 0.02 0.04 0.03 0.01 0.01 0.01 0.00 0.00 0.00 0.00 0.00 0.00 0.00 0.00 0.00 0.00 0.00 0.00 0.00 0.00 0.00
0.00 0.00 0.00 0.00 0.00 0.00 0.00 0.00 0.00 0.00 0.01 0.02 0.01 0.00 0.00 0.00 0.01 0.03 0.02 0.00 0.00 0.01 0.01 0.04 0.03 0.01 0.00 0.00 0.00 0.00 0.00 0.00 0.00 0.00 0.00 0.00 0.00 0.00 0.00 0.00 0.00 0.00 0.00
0.00 0.00 0.00 0.00 0.00 0.00 0.00 0.00 0.00 0.00 0.01 0.02 0.01 0.01 0.01 0.01 0.04 0.07 0.04 0.02 0.03 0.03 0.02 0.01 0.01 0.01 0.00 0.00 0.00 0.00 0.00 0.00 0.00 0.00 0.00 0.00 0.00 0.00 0.00 0.00 0.00 0.00 0.00
0.00 0.00 0.00 0.00 0.00 0.00 0.00 0.00 0.00 0.00 0.00 0.01 0.01 0.01 0.01 0.03 0.05 0.04 0.03 0.03 0.05 0.05 0.02 0.02 0.01 0.01 0.01 0.00 0.00 0.00 0.00 0.00 0.00 0.00 0.00 0.00 0.00 0.00 0.00 0.00 0.00 0.00 0.00
0.00 0.00 0.00 0.00 0.00 0.00 0.00 0.01 0.01 0.00 0.00 0.00 0.00 0.01 0.01 0.03 0.03 0.03 0.01 0.01 0.02 0.01 0.00 0.01 0.01 0.01 0.00 0.00 0.00 0.00 0.00 0.00 0.00 0.00 0.00 0.00 0.00 0.00 0.00 0.00 0.00 0.00 0.00
0.00 0.00 0.00 0.00 0.01 0.01 0.02 0.02 0.02 0.01 0.01 0.00 0.00 0.00 0.01 0.02 0.02 0.01 0.01 0.00 0.00 0.00 0.00 0.00 0.00 0.00 0.00 0.00 0.00 0.00 0.00 0.00 0.00 0.00 0.00 0.00 0.00 0.00 0.00 0.00 0.00 0.00 0.00
0.00 0.00 0.01 0.02 0.02 0.03 0.03 0.03 0.02 0.01 0.01 0.00 0.00 0.00 0.00 0.00 0.00 0.00 0.00 0.00 0.00 0.00 0.00 0.00 0.00 0.00 0.00 0.00 0.00 0.00 0.00 0.00 0.00 0.00 0.00 0.00 0.00 0.00 0.00 0.00 0.00 0.00 0.00
0.00 0.01 0.01 0.02 0.02 0.02 0.02 0.02 0.02 0.02 0.01 0.01 0.01 0.00 0.00 0.00 0.00 0.00 0.00 0.00 0.00 0.00 0.00 0.00 0.00 0.00 0.00 0.00 0.00 0.00 0.00 0.00 0.00 0.00 0.00 0.00 0.00 0.00 0.00 0.00 0.00 0.00 0.00
0.01 0.01 0.01 0.01 0.02 0.02 0.02 0.03 0.03 0.02 0.02 0.02 0.01 0.01 0.03 0.04 0.02 0.00 0.00 0.00 0.00 0.00 0.00 0.00 0.00 0.00 0.00 0.00 0.00 0.00 0.00 0.00 0.00 0.00 0.00 0.00 0.00 0.00 0.00 0.00 0.00 0.00 0.00
0.02 0.01 0.01 0.02 0.02 0.02 0.03 0.03 0.02 0.02 0.02 0.02 0.01 0.01 0.02 0.02 0.01 0.00 0.00 0.00 0.00 0.00 0.00 0.00 0.00 0.00 0.00 0.00 0.00 0.00 0.00 0.00 0.00 0.00 0.00 0.00 0.00 0.00 0.00 0.00 0.00 0.00 0.00
0.02 0.01 0.01 0.01 0.01 0.01 0.01 0.01 0.02 0.02 0.02 0.02 0.01 0.01 0.01 0.01 0.00 0.00 0.00 0.00 0.00 0.00 0.00 0.00 0.00 0.00 0.00 0.00 0.00 0.00 0.00 0.00 0.00 0.00 0.00 0.00 0.00 0.00 0.00 0.00 0.00 0.00 0.00
0.01 0.01 0.00 0.01 0.01 0.01 0.01 0.01 0.02 0.02 0.02 0.02 0.02 0.02 0.01 0.01 0.00 0.00 0.00 0.00 0.00 0.00 0.00 0.00 0.00 0.00 0.00 0.00 0.00 0.00 0.00 0.00 0.00 0.00 0.00 0.00 0.00 0.00 0.00 0.00 0.00 0.00 0.00
0.00 0.00 0.00 0.01 0.01 0.01 0.01 0.01 0.01 0.02 0.02 0.02 0.02 0.02 0.01 0.01 0.01 0.00 0.00 0.00 0.00 0.00 0.00 0.00 0.00 0.00 0.00 0.00 0.00 0.00 0.00 0.00 0.01 0.02 0.03 0.02 0.02 0.01 0.01 0.01 0.00 0.00 0.00
0.00 0.00 0.01 0.01 0.01 0.01 0.01 0.01 0.01 0.02 0.02 0.02 0.02 0.01 0.01 0.01 0.01 0.00 0.00 0.00 0.00 0.00 0.00 0.00 0.00 0.00 0.00 0.00 0.00 0.00 0.01 0.02 0.03 0.06 0.08 0.08 0.06 0.03 0.02 0.01 0.01 0.01 0.01
MSLP
1029.90 1029.07 1028.22 1027.35 1026.45 1025.52 1024.55 1023.55 1022.51 1021.45 1020.39 1019.34 1018.31 1017.32 1016.35 1015.42 1014.51 1013.62 1012.76 1011.92 1011.13 1010.39 1009.72 1009.13 1008.64 1008.25 1007.97 1007.80 1007.72 1007.72 1007.80 1007.95 1008.13 1008.36 1008.62 1008.89 1009.18 1009.49 1009.81 1010.15 1010.52 1010.91 1011.33
1030.25 1029.40 1028.53 1027.65 1026.74 1025.82 1024.86 1023.87 1022.84 1021.79 1020.73 1019.68 1018.64 1017.63 1016.66 1015.72 1014.81 1013.93 1013.08 1012.26 1011.48 1010.74 1010.05 1009.43 1008.89 1008.43 1008.08 1007.83 1007.69 1007.65 1007.71 1007.86 1008.08 1008.36 1008.68 1009.02 1009.39 1009.76 1010.14 1010.53 1010.92 1011.33 1011.76
1030.54 1029.69 1028.81 1027.93 1027.03 1026.12 1025.18 1024.20 1023.20 1022.16 1021.11 1020.05 1019.01 1017.99 1017.01 1016.08 1015.18 1014.32 1013.51 1012.72 1011.97 1011.25 1010.56 1009.93 1009.35 1008.84 1008.42 1008.10 1007.89 1007.80 1007.82 1007.94 1008.16 1008.44 1008.79 1009.17 1009.57 1009.99 1010.40 1010.82 1011.25 1011.68 1012.11
1030.80 1029.95 1029.08 1028.20 1027.32 1026.43 1025.51 1024.55 1023.56 1022.54 1021.50 1020.45 1019.41 1018.39 1017.42 1016.49 1015.62 1014.80 1014.02 1013.28 1012.57 1011.89 1011.23 1010.60 1010.00 1009.47 1009.00 1008.63 1008.36 1008.20 1008.16 1008.23 1008.40 1008.66 1008.98 1009.36 1009.76 1010.18 1010.60 1011.04 1011.48 1011.92 1012.38
1031.03 1030.18 1029.32 1028.46 1027.60 1026.73 1025.83 1024.90 1023.93 1022.93 1021.90 1020.86 1019.82 1018.81 1017.85 1016.94 1016.09 1015.31 1014.58 1013.89 1013.24 1012.61 1011.99 1011.39 1010.82 1010.28 1009.79 1009.38 1009.06 1008.84 1008.73 1008.74 1008.84 1009.04 1009.30 1009.63 1009.98 1010.37 1010.78 1011.20 1011.64 1012.10 1012.58
1031.21 1030.37 1029.53 1028.69 1027.86 1027.01 1026.14 1025.24 1024.29 1023.31 1022.29 1021.26 1020.23 1019.23 1018.28 1017.39 1016.56 1015.81 1015.13 1014.50 1013.90 1013.33 1012.78 1012.23 1011.70 1011.19 1010.71 1010.30 1009.95 1009.69 1009.53 1009.46 1009.49 1009.61 1009.79 1010.04 1010.33 1010.65 1011.01 1011.41 1011.83 1012.29 1012.77
1031.35 1030.52 1029.70 1028.88 1028.07 1027.25 1026.40 1025.53 1024.61 1023.65 1022.65 1021.63 1020.62 1019.63 1018.68 1017.80 1016.99 1016.27 1015.61 1015.03 1014.49 1013.98 1013.49 1013.02 1012.55 1012.10 1011.67 1011.29 1010.95 1010.68 1010.49 1010.38 1010.35 1010.38 1010.49 1010.64 1010.85 1011.10 1011.40 1011.74 1012.13 1012.56 1013.04
1031.43 1030.60 1029.79 1028.99 1028.21 1027.41 1026.60 1025.76 1024.87 1023.93 1022.96 1021.96 1020.96 1019.97 1019.03 1018.15 1017.35 1016.63 1016.00 1015.44 1014.94 1014.49 1014.07 1013.67 1013.29 1012.92 1012.58 1012.26 1011.98 1011.74 1011.56 1011.44 1011.37 1011.36 1011.40 1011.48 1011.61 1011.78 1012.01 1012.28 1012.62 1013.01 1013.45
1031.41 1030.60 1029.80 1029.02 1028.26 1027.49 1026.71 1025.90 1025.05 1024.15 1023.21 1022.24 1021.25 1020.27 1019.33 1018.44 1017.63 1016.91 1016.27 1015.72 1015.25 1014.84 1014.48 1014.16 1013.87 1013.60 1013.35 1013.13 1012.94 1012.78 1012.66 1012.57 1012.51 1012.48 1012.49 1012.52 1012.59 1012.70 1012.85 1013.06 1013.33 1013.66 1014.05
1031.31 1030.50 1029.71 1028.95 1028.20 1027.47 1026.72 1025.95 1025.13 1024.28 1023.38 1022.44 1021.48 1020.52 1019.58 1018.69 1017.86 1017.12 1016.47 1015.91 1015.44 1015.06 1014.75 1014.49 1014.28 1014.12 1013.99 1013.88 1013.80 1013.75 1013.71 1013.69 1013.68 1013.68 1013.69 1013.71 1013.75 1013.81 1013.90 1014.04 1014.23 1014.49 1014.80
1031.12 1030.31 1029.52 1028.77 1028.04 1027.32 1026.61 1025.88 1025.11 1024.31 1023.46 1022.57 1021.66 1020.72 1019.80 1018.92 1018.08 1017.32 1016.65 1016.08 1015.61 1015.23 1014.94 1014.74 1014.60 1014.52 1014.50 1014.51 1014.55 1014.61 1014.68 1014.75 1014.82 1014.88 1014.92 1014.96 1014.98 1015.02 1015.06 1015.14 1015.26 1015.43 1015.66
1030.86 1030.03 1029.24 1028.48 1027.76 1027.06 1026.37 1025.68 1024.97 1024.23 1023.45 1022.63 1021.77 1020.89 1020.01 1019.15 1018.33 1017.57 1016.89 1016.30 1015.82 1015.44 1015.17 1015.00 1014.91 1014.90 1014.95 1015.06 1015.20 1015.37 1015.54 1015.71 1015.86 1015.99 1016.08 1016.15 1016.19 1016.21 1016.23 1016.26 1016.31 1016.40 1016.53
1030.53 1029.68 1028.88 1028.10 1027.37 1026.68 1026.02 1025.36 1024.71 1024.04 1023.33 1022.60 1021.83 1021.03 1020.21 1019.41 1018.62 1017.89 1017.22 1016.64 1016.16 1015.79 1015.52 1015.36 1015.30 1015.33 1015.44 1015.61 1015.82 1016.06 1016.31 1016.55 1016.77 1016.96 1017.11 1017.22 1017.28 1017.31 1017.31 1017.30 1017.30 1017.31 1017.36
1030.16 1029.28 1028.44 1027.65 1026.90 1026.21 1025.56 1024.93 1024.33 1023.72 1023.11 1022.47 1021.80 1021.11 1020.39 1019.67 1018.97 1018.29 1017.68 1017.13 1016.67 1016.31 1016.06 1015.91 1015.86 1015.90 1016.03 1016.22 1016.46 1016.74 1017.02 1017.31 1017.57 1017.80 1017.99 1018.12 1018.20 1018.24 1018.23 1018.20 1018.16 1018.12 1018.10
1029.76 1028.86 1027.98 1027.15 1026.38 1025.67 1025.01 1024.41 1023.85 1023.31 1022.78 1022.24 1021.68 1021.11 1020.52 1019.92 1019.33 1018.76 1018.22 1017.75 1017.35 1017.03 1016.80 1016.66 1016.61 1016.65 1016.77 1016.95 1017.18 1017.45 1017.73 1018.01 1018.28 1018.52 1018.71 1018.86 1018.95 1018.99 1018.99 1018.95 1018.88 1018.80 1018.73
1029.38 1028.43 1027.52 1026.65 1025.84 1025.11 1024.44 1023.85 1023.32 1022.83 1022.37 1021.92 1021.48 1021.03 1020.57 1020.11 1019.66 1019.22 1018.81 1018.44 1018.13 1017.88 1017.69 1017.59 1017.55 1017.58 1017.67 1017.82 1018.01 1018.23 1018.47 1018.71 1018.94 1019.15 1019.33 1019.47 1019.56 1019.60 1019.60 1019.55 1019.48 1019.38 1019.28
1029.02 1028.04 1027.09 1026.19 1025.35 1024.59 1023.91 1023.31 1022.78 1022.32 1021.91 1021.54 1021.19 1020.85 1020.53 1020.21 1019.91 1019.62 1019.35 1019.11 1018.92 1018.76 1018.65 1018.59 1018.57 1018.60 1018.67 1018.77 1018.90 1019.06 1019.23 1019.40 1019.57 1019.73 1019.88 1019.99 1020.06 1020.10 1020.09 1020.05 1019.98 1019.88 1019.77
1028.71 1027.71 1026.75 1025.82 1024.96 1024.17 1023.47 1022.86 1022.32 1021.87 1021.48 1021.15 1020.87 1020.62 1020.40 1020.21 1020.04 1019.90 1019.78 1019.68 1019.62 1019.57 1019.55 1019.55 1019.57 1019.61 1019.66 1019.72 1019.79 1019.88 1019.97 1020.06 1020.16 1020.26 1020.35 1020.42 1020.48 1020.50 1020.50 1020.47 1020.41 1020.33 1020.22
1028.47 1027.48 1026.52 1025.60 1024.73 1023.93 1023.21 1022.57 1022.02 1021.55 1021.15 1020.83 1020.57 1020.38 1020.23 1020.13 1020.08 1020.06 1020.07 1020.10 1020.16 1020.22 1020.29 1020.36 1020.43 1020.48 1020.52 1020.55 1020.57 1020.58 1020.60 1020.62 1020.65 1020.68 1020.72 1020.75 1020.78 1020.80 1020.80 1020.79 1020.75 1020.68 1020.60
1028.32 1027.38 1026.45 1025.55 1024.70 1023.90 1023.16 1022.50 1021.92 1021.41 1020.99 1020.65 1020.38 1020.20 1020.08 1020.03 1020.05 1020.11 1020.22 1020.35 1020.50 1020.66 1020.80 1020.93 1021.03 1021.10 1021.13 1021.13 1021.11 1021.07 1021.03 1020.98 1020.94 1020.92 1020.91 1020.91 1020.92 1020.93 1020.94 1020.94 1020.92 1020.88 1020.83
1028.28 1027.40 1026.53 1025.68 1024.86 1024.08 1023.35 1022.67 1022.06 1021.51 1021.04 1020.66 1020.36 1020.15 1020.03 1019.99 1020.02 1020.12 1020.27 1020.46 1020.67 1020.87 1021.06 1021.22 1021.33 1021.40 1021.42 1021.39 1021.33 1021.24 1021.15 1021.04 1020.96 1020.88 1020.83 1020.81 1020.80 1020.81 1020.83 1020.84 1020.86 1020.85 1020.83
1028.33 1027.53 1026.74 1025.96 1025.20 1024.46 1023.74 1023.06 1022.43 1021.84 1021.33 1020.89 1020.54 1020.29 1020.12 1020.05 1020.07 1020.16 1020.31 1020.49 1020.70 1020.90 1021.09 1021.23 1021.33 1021.37 1021.35 1021.29 1021.18 1021.05 1020.91 1020.76 1020.63 1020.52 1020.44 1020.39 1020.37 1020.38 1020.40 1020.44 1020.48 1020.51 1020.52
1028.46 1027.75 1027.04 1026.35 1025.65 1024.96 1024.28 1023.61 1022.96 1022.36 1021.81 1021.33 1020.93 1020.62 1020.40 1020.28 1020.24 1020.28 1020.38 1020.52 1020.67 1020.82 1020.94 1021.03 1021.07 1021.05 1020.97 1020.85 1020.69 1020.51 1020.32 1020.13 1019.96 1019.81 1019.71 1019.64 1019.61 1019.61 1019.64 1019.68 1019.74 1019.80 1019.85
1028.64 1028.01 1027.39 1026.76 1026.13 1025.49 1024.85 1024.20 1023.57 1022.96 1022.39 1021.88 1021.45 1021.09 1020.83 1020.64 1020.54 1020.51 1020.53 1020.58 1020.64 1020.69 1020.71 1020.70 1020.64 1020.53 1020.37 1020.18 1019.95 1019.71 1019.46 1019.23 1019.02 1018.85 1018.72 1018.62 1018.57 1018.56 1018.58 1018.62 1018.69 1018.76 1018.85
1028.84 1028.27 1027.71 1027.14 1026.56 1025.97 1025.36 1024.74 1024.12 1023.53 1022.96 1022.45 1022.00 1021.62 1021.32 1021.09 1020.92 1020.81 1020.73 1020.68 1020.62 1020.55 1020.46 1020.32 1020.14 1019.92 1019.67 1019.39 1019.08 1018.78 1018.49 1018.21 1017.97 1017.76 1017.59 1017.47 1017.39 1017.35 1017.34 1017.37 1017.42 1017.50 1017.60
1029.05 1028.51 1027.98 1027.44 1026.88 1026.31 1025.72 1025.13 1024.54 1023.96 1023.42 1022.92 1022.47 1022.09 1021.77 1021.50 1021.28 1021.10 1020.94 1020.78 1020.61 1020.42 1020.19 1019.93 1019.64 1019.31 1018.96 1018.59 1018.23 1017.87 1017.53 1017.22 1016.94 1016.70 1016.50 1016.34 1016.21 1016.13 1016.08 1016.06 1016.08 1016.14 1016.23
Thickness
5281 5281 5281 5282 5284 5287 5290 5295 5300 5307 5312 5318 5324 5329 5335 5341 5348 5355 5361 5367 5373 5379 5385 5395 5405 5415 5426 5434 5443 5450 5458 5465 5471 5476 5484 5492 5500 5506 5512 5517 5521 5525 5529
5272 5272 5272 5273 5275 5277 5280 5285 5289 5294 5300 5304 5309 5314 5319 5324 5331 5338 5344 5350 5356 5363 5370 5379 5390 5401 5409 5418 5426 5434 5441 5447 5454 5459 5463 5471 5477 5484 5490 5495 5500 5505 5510
5262 5261 5261 5262 5263 5265 5268 5272 5276 5280 5285 5289 5294 5299 5303 5308 5314 5322 5327 5332 5337 5344 5353 5363 5374 5384 5394 5402 5410 5417 5425 5432 5438 5443 5447 5452 5458 5464 5469 5474 5479 5484 5490
5249 5248 5247 5248 5249 5251 5253 5257 5260 5264 5268 5273 5278 5282 5287 5293 5299 5307 5311 5315 5320 5327 5335 5344 5355 5366 5377 5386 5394 5400 5408 5415 5422 5428 5432 5436 5441 5447 5453 5456 5458 5463 5468
5234 5233 5232 5233 5233 5235 5237 5239 5242 5246 5250 5255 5260 5265 5271 5278 5285 5293 5298 5301 5305 5310 5317 5325 5335 5345 5358 5369 5378 5385 5393 5400 5407 5414 5418 5422 5426 5431 5436 5441 5442 5443 5446
5220 5218 5217 5217 5217 5218 5219 5221 5223 5226 5231 5236 5241 5247 5253 5260 5269 5279 5286 5288 5291 5295 5301 5308 5317 5325 5335 5348 5360 5370 5378 5384 5391 5398 5403 5409 5411 5416 5421 5426 5427 5430 5431
5207 5205 5204 5202 5202 5201 5202 5203 5204 5207 5211 5216 5222 5228 5234 5242 5253 5262 5271 5273 5277 5281 5286 5292 5299 5307 5315 5325 5336 5347 5356 5365 5372 5378 5384 5388 5393 5399 5407 5414 5417 5418 5417
5199 5196 5194 5191 5189 5188 5187 5186 5187 5189 5192 5197 5203 5208 5215 5223 5234 5243 5252 5256 5262 5266 5271 5277 5284 5292 5301 5307 5316 5325 5333 5342 5351 5358 5364 5369 5374 5380 5388 5395 5399 5397 5396
5192 5188 5185 5182 5179 5177 5174 5172 5172 5173 5176 5180 5185 5190 5196 5203 5214 5225 5233 5239 5245 5250 5256 5262 5269 5276 5286 5292 5297 5304 5311 5319 5328 5336 5343 5349 5356 5363 5370 5376 5381 5385 5383
5186 5181 5177 5173 5169 5166 5162 5160 5159 5159 5162 5164 5168 5173 5178 5185 5195 5206 5215 5222 5228 5234 5240 5246 5255 5262 5270 5275 5279 5285 5291 5296 5304 5311 5318 5325 5331 5338 5346 5353 5361 5368 5370
5180 5175 5170 5165 5160 5157 5152 5149 5147 5147 5148 5150 5153 5157 5162 5169 5176 5187 5196 5203 5210 5217 5223 5229 5237 5246 5254 5260 5264 5269 5274 5278 5284 5291 5297 5303 5310 5316 5322 5329 5337 5345 5350
5175 5169 5163 5158 5152 5149 5143 5140 5137 5135 5136 5136 5139 5142 5146 5152 5159 5168 5178 5187 5194 5200 5206 5212 5220 5229 5236 5242 5247 5253 5257 5261 5267 5273 5278 5283 5288 5294 5300 5308 5315 5322 5328
5172 5165 5159 5153 5147 5141 5135 5131 5128 5125 5124 5126 5127 5128 5130 5136 5142 5150 5159 5168 5177 5183 5190 5198 5205 5211 5216 5221 5228 5232 5236 5242 5248 5252 5257 5262 5268 5274 5282 5289 5295 5301 5307
5168 5162 5157 5151 5145 5138 5130 5125 5120 5116 5114 5115 5116 5116 5117 5121 5126 5134 5141 5148 5157 5165 5171 5179 5187 5192 5196 5201 5206 5211 5217 5222 5227 5232 5237 5243 5250 5257 5264 5270 5277 5284 5288
5167 5161 5156 5150 5142 5135 5128 5119 5113 5109 5105 5106 5106 5105 5107 5109 5114 5121 5127 5133 5139 5146 5153 5159 5165 5170 5175 5180 5185 5191 5196 5201 5207 5213 5219 5226 5232 5239 5245 5252 5259 5266 5270
5166 5161 5155 5148 5141 5133 5125 5119 5110 5102 5099 5096 5095 5096 5098 5101 5105 5109 5112 5115 5121 5127 5132 5137 5143 5149 5155 5160 5166 5171 5177 5183 5189 5195 5201 5208 5214 5221 5227 5234 5241 5246 5252
5165 5160 5154 5147 5139 5130 5122 5112 5104 5096 5087 5084 5083 5084 5086 5089 5093 5096 5098 5099 5103 5106 5109 5114 5119 5126 5133 5139 5146 5152 5158 5164 5171 5178 5184 5190 5198 5205 5211 5217 5224 5230 5236
5167 5161 5155 5147 5138 5128 5116 5104 5092 5083 5077 5071 5069 5070 5073 5077 5080 5083 5085 5085 5085 5087 5090 5093 5098 5105 5112 5119 5126 5133 5140 5147 5154 5160 5167 5173 5181 5189 5196 5202 5208 5216 5223
5169 5164 5158 5148 5137 5125 5112 5099 5086 5075 5067 5062 5059 5059 5062 5065 5068 5071 5072 5071 5072 5073 5075 5078 5082 5087 5092 5099 5106 5114 5121 5129 5136 5143 5150 5157 5165 5173 5180 5188 5195 5204 5210
5171 5165 5157 5147 5136 5125 5113 5100 5087 5074 5064 5057 5054 5053 5054 5056 5058 5059 5061 5062 5063 5064 5065 5067 5069 5073 5077 5081 5088 5095 5103 5111 5119 5126 5134 5142 5150 5158 5166 5175 5183 5190 5197
5173 5164 5157 5147 5138 5129 5118 5105 5092 5078 5067 5059 5054 5052 5055 5054 5053 5054 5055 5056 5056 5057 5058 5059 5060 5062 5065 5069 5073 5079 5087 5094 5102 5110 5119 5127 5136 5144 5153 5162 5170 5179 5187
5172 5164 5157 5150 5143 5134 5125 5112 5100 5088 5077 5067 5060 5056 5055 5052 5052 5051 5052 5052 5052 5052 5052 5053 5053 5055 5057 5059 5063 5067 5073 5080 5088 5096 5104 5113 5122 5131 5140 5149 5158 5167 5176
5175 5168 5162 5155 5148 5140 5130 5121 5111 5100 5090 5080 5071 5064 5059 5055 5052 5051 5050 5050 5049 5049 5049 5048 5049 5049 5051 5053 5056 5059 5063 5070 5077 5084 5092 5101 5110 5120 5129 5138 5147 5157 5166
5180 5173 5167 5161 5153 5144 5135 5127 5118 5110 5102 5093 5084 5076 5069 5062 5058 5055 5052 5050 5049 5048 5047 5046 5045 5046 5047 5048 5051 5054 5058 5063 5069 5076 5084 5092 5101 5110 5120 5129 5139 5149 5158
5185 5179 5173 5167 5158 5149 5140 5132 5125 5118 5112 5104 5096 5089 5081 5075 5070 5065 5061 5057 5054 5052 5049 5048 5046 5046 5046 5047 5049 5052 5056 5061 5067 5073 5079 5086 5094 5102 5111 5121 5131 5141 5150
5190 5184 5179 5173 5165 5155 5147 5139 5132 5126 5119 5113 5106 5100 5094 5089 5083 5078 5073 5069 5065 5061 5058 5056 5054 5053 5052 5052 5054 5056 5060 5064 5069 5075 5080 5084 5089 5096 5104 5114 5123 5132 5142